{"data":{"norad_id":57351,"epoch":"2026-09-20T15:05:32.608896Z","epoch_age_seconds":113134,"freshness":"FRESH","line1":"1 57351U 23099Z   26263.62884964 -.00001056  00000+0 -28883-4 0  9996","line2":"2 57351  43.0028 227.7549 0000966 278.4942  81.5801 15.27571596175939","mean_motion":15.27571596,"eccentricity":9.66e-5,"inclination_deg":43.0028,"raan_deg":227.7549,"arg_perigee_deg":278.4942,"mean_anomaly_deg":81.5801,"bstar":-2.8883e-5,"rev_number":17593,"period_min":94.267267326173,"perigee_km":482.41146774656,"apogee_km":483.73705376214,"semimajor_km":6861.2112607543,"source":"CELESTRAK","updated_at":"2026-09-21T09:00:33.600598Z"}}